FW3646 Weather Reports


Display with metric or nautical units.
time (UTC)temp
F
wind
direction
speed
MPH
gust
MPH
rain 1hr
in
rain 24hr
in
rain mn
in
humidity
%
barometer
mb
20260506002709 58 297 0.0 0.0 0.00 0.03 0.01 88 1009.9
20260506002209 58 297 0.0 0.0 0.00 0.03 0.01 88 1009.9
20260506001938 58 297 0.0 0.0 0.00 0.03 0.01 88 1010.0
20260506001149 58 297 0.0 0.0 0.00 0.03 0.01 88 1010.1
20260506000638 58 297 0.0 0.0 0.00 0.03 0.01 88 1010.2
20260506000135 58 297 0.0 0.0 0.00 0.03 0.01 88 1009.6
20260505235614 58 297 0.0 0.0 0.00 0.03 0.01 88 1010.6
20260505235119 58 297 0.0 0.0 0.00 0.03 0.01 88 1010.6
20260505234613 58 297 0.0 0.0 0.00 0.03 0.01 88 1010.7
20260505234113 58 297 0.0 0.0 0.00 0.03 0.01 88 1010.7
20260505233615 58 297 0.0 0.0 0.00 0.03 0.01 88 1010.7
20260505233114 58 297 0.0 0.0 0.01 0.03 0.01 88 1010.7
20260505232613 58 297 0.0 1.0 0.01 0.03 0.01 88 1010.7
20260505232110 58 297 0.0 1.0 0.01 0.03 0.01 88 1010.6
20260505231544 58 298 0.0 4.0 0.01 0.03 0.01 88 1010.5
20260505231309 58 298 0.0 4.0 0.01 0.03 0.01 88 1010.3
20260505230537 58 247 0.0 1.0 0.01 0.03 0.01 88 1010.3
20260505230036 58 231 0.0 0.0 0.01 0.03 0.01 88 1010.3
20260505225809 58 231 0.0 0.0 0.01 0.03 0.01 88 1010.5
20260505225011 58 231 0.0 0.0 0.01 0.03 0.01 88 1010.5
20260505224510 58 232 0.0 0.0 0.01 0.03 0.01 88 1010.5
20260505224008 59 231 0.0 0.0 0.01 0.03 0.01 88 1010.5
20260505223742 58 231 0.0 0.0 0.01 0.03 0.01 88 1010.3
20260505223005 59 231 0.0 0.0 0.00 0.02 0.00 88 1010.2
20260505222728 59 231 0.0 0.0 0.00 0.02 0.00 88 1010.1
20260505221955 59 231 0.0 1.0 0.00 0.02 0.00 88 1009.4
20260505221722 59 232 0.0 2.0 0.00 0.02 0.00 88 1010.1
20260505220943 59 232 0.0 2.0 0.00 0.02 0.00 88 1010.1
20260505220442 59 231 0.0 2.0 0.00 0.02 0.00 88 1010.1
20260505215942 59 237 1.0 3.0 0.00 0.02 0.02 88 1009.9
20260505215439 59 294 2.0 5.0 0.00 0.02 0.02 88 1009.8
20260505214939 59 286 1.0 6.0 0.00 0.02 0.02 88 1009.5
20260505214436 59 292 1.0 6.0 0.00 0.02 0.02 88 1009.6
20260505213938 59 301 1.0 4.0 0.00 0.02 0.02 88 1009.4
20260505213435 59 322 0.0 3.0 0.00 0.02 0.02 88 1009.4
20260505212938 60 231 0.0 0.0 0.00 0.02 0.02 88 1009.2
20260505212450 60 211 0.0 0.0 0.00 0.02 0.02 89 1009.1
20260505211914 60 211 0.0 0.0 0.00 0.02 0.02 89 1009.1
20260505211651 60 211 0.0 0.0 0.00 0.02 0.02 89 1009.1
20260505210914 60 211 0.0 0.0 0.00 0.02 0.02 89 1009.0
20260505210415 60 211 0.0 0.0 0.00 0.02 0.02 88 1009.0
20260505205910 60 211 0.0 0.0 0.00 0.02 0.02 88 1009.0
20260505205410 60 211 0.0 0.0 0.00 0.02 0.02 88 1009.0
20260505205205 60 211 0.0 0.0 0.00 0.02 0.02 88 1009.0
20260505204630 60 210 0.0 0.0 0.00 0.02 0.02 88 1008.8
20260505204119 60 211 0.0 2.0 0.00 0.02 0.02 88 1008.8
20260505203338 60 211 1.0 3.0 0.00 0.02 0.02 88 1008.7
20260505202836 60 211 0.0 3.0 0.00 0.02 0.02 87 1008.6
20260505202608 61 97 0.0 1.0 0.00 0.02 0.02 87 1008.5
20260505201837 61 97 0.0 0.0 0.00 0.02 0.02 86 1008.4
20260505201335 61 97 0.0 1.0 0.00 0.02 0.02 86 1008.2
20260505200836 61 85 0.0 1.0 0.00 0.02 0.02 84 1008.1
20260505200336 61 50 0.0 1.0 0.00 0.02 0.02 83 1008.0
20260505195837 61 47 0.0 0.0 0.01 0.02 0.02 82 1007.9
20260505195337 61 47 0.0 0.0 0.01 0.02 0.02 81 1007.8
20260505194838 61 47 0.0 0.0 0.01 0.02 0.02 81 1007.7
20260505194336 62 47 0.0 0.0 0.01 0.02 0.02 81 1007.8
20260505193836 62 47 0.0 0.0 0.01 0.02 0.02 81 1007.7
20260505193337 62 47 0.0 0.0 0.01 0.02 0.02 80 1007.6
20260505193109 62 47 0.0 0.0 0.02 0.02 0.02 80 1007.6
20260505192336 62 47 0.0 0.0 0.02 0.02 0.02 80 1007.5
20260505191837 62 47 0.0 2.0 0.02 0.02 0.02 80 1007.5
20260505191335 63 47 0.0 2.0 0.02 0.02 0.02 80 1007.5
20260505190835 63 54 0.0 1.0 0.02 0.02 0.02 80 1007.3
20260505190335 63 53 0.0 3.0 0.02 0.02 0.02 79 1007.1
20260505185835 64 53 1.0 3.0 0.02 0.02 0.02 79 1007.1
20260505185334 64 79 1.0 4.0 0.02 0.02 0.02 77 1007.0
20260505184837 64 75 1.0 4.0 0.02 0.02 0.02 76 1007.0
20260505184308 65 83 0.0 2.0 0.02 0.02 0.02 74 1007.1
20260505183809 65 196 0.0 2.0 0.02 0.02 0.02 73 1007.3
20260505183305 66 196 0.0 2.0 0.02 0.02 0.02 71 1007.3
20260505182808 66 236 0.0 2.0 0.01 0.01 0.01 69 1007.3
20260505182308 66 243 0.0 0.0 0.01 0.01 0.01 68 1007.3
20260505181737 66 243 0.0 3.0 0.00 0.00 0.00 66 1007.1
20260505181215 67 248 0.0 3.0 0.00 0.00 0.00 65 1007.1
20260505180711 67 232 1.0 5.0 0.00 0.00 0.00 62 1007.0
20260505180211 67 253 2.0 5.0 0.00 0.00 0.00 60 1006.9
20260505175700 68 256 3.0 8.0 0.00 0.00 0.00 59 1006.7
20260505175206 68 216 4.0 10.0 0.00 0.00 0.00 58 1006.7
20260505174650 68 260 4.0 12.0 0.00 0.00 0.00 57 1006.5
20260505174150 68 253 4.0 13.0 0.00 0.00 0.00 56 1006.5
20260505173650 69 33 5.0 13.0 0.00 0.00 0.00 56 1006.5
20260505173149 69 262 6.0 14.0 0.00 0.00 0.00 55 1006.4
20260505172924 69 288 5.0 14.0 0.00 0.00 0.00 55 1006.4
20260505172419 70 258 5.0 16.0 0.00 0.00 0.00 54 1006.4
20260505171651 70 266 5.0 16.0 0.00 0.00 0.00 53 1006.3
20260505171142 71 207 6.0 17.0 0.00 0.00 0.00 53 1006.2
20260505170642 72 275 6.0 17.0 0.00 0.00 0.00 50 1006.1
20260505170138 74 255 6.0 21.0 0.00 0.00 0.00 47 1006.0
20260505165652 78 175 0.0 1.0 0.00 0.00 0.00 36 1005.4
20260505165643 77 291 2.0 21.0 0.00 0.00 0.00 41 1005.9
20260505164609 78 175 0.0 1.0 0.00 0.00 0.00 35 1005.3
20260505164043 78 175 0.0 1.0 0.00 0.00 0.00 35 1005.2
20260505163537 79 175 0.0 0.0 0.00 0.00 0.00 34 1005.0
20260505163038 79 175 0.0 0.0 0.00 0.00 0.00 34 1005.0
20260505162808 79 175 0.0 0.0 0.00 0.00 0.00 34 1005.0
20260505162037 79 175 0.0 0.0 0.00 0.00 0.00 34 1005.1
20260505161535 79 175 0.0 0.0 0.00 0.00 0.00 34 1005.2
20260505161036 79 175 0.0 0.0 0.00 0.00 0.00 34 1005.2
20260505160758 79 175 0.0 1.0 0.00 0.00 0.00 33 1005.2
20260505153001 80 193 1.0 3.0 0.00 0.00 0.00 33 1005.3
20260505152500 80 152 0.0 2.0 0.00 0.00 0.00 31 1005.4
20260505151957 80 167 1.0 4.0 0.00 0.00 0.00 33 1005.4
20260505151446 80 167 1.0 4.0 0.00 0.00 0.00 31 1005.4
20260505150945 81 181 1.0 4.0 0.00 0.00 0.00 31 1005.4
20260505150446 81 192 1.0 5.0 0.00 0.00 0.00 31 1005.5
20260505124835 84 285 2.0 8.0 0.00 0.00 0.00 34 1006.5
20260505124600 83 186 2.0 8.0 0.00 0.00 0.00 33 1006.5
20260505123837 82 149 1.0 4.0 0.00 0.00 0.00 35 1006.5
20260505123333 82 71 2.0 7.0 0.00 0.00 0.00 35 1006.7
20260505123059 82 348 2.0 7.0 0.00 0.00 0.00 34 1006.7
20260505122556 83 23 2.0 6.0 0.00 0.00 0.00 34 1006.8
20260505121816 83 347 2.0 5.0 0.00 0.00 0.00 36 1007.0
20260505121315 83 73 2.0 5.0 0.00 0.00 0.00 35 1007.0
20260505120809 83 239 2.0 8.0 0.00 0.00 0.00 37 1007.1
20260505120310 83 21 2.0 8.0 0.00 0.00 0.00 36 1007.3
20260505115809 83 10 1.0 5.0 0.00 0.00 0.00 37 1007.3
20260505115308 82 297 1.0 5.0 0.00 0.00 0.00 38 1007.4
20260505115042 82 280 2.0 4.0 0.00 0.00 0.00 40 1007.4
20260505114535 82 359 2.0 8.0 0.00 0.00 0.00 39 1007.5
20260505113805 82 308 1.0 8.0 0.00 0.00 0.00 38 1007.6
20260505113306 82 304 1.0 4.0 0.00 0.00 0.00 40 1007.6
20260505112808 81 4 1.0 5.0 0.00 0.00 0.00 39 1007.8
20260505112307 81 4 1.0 5.0 0.00 0.00 0.00 38 1007.7
20260505111803 81 275 1.0 4.0 0.00 0.00 0.00 40 1007.9
20260505111528 81 291 2.0 6.0 0.00 0.00 0.00 39 1007.9
20260505110745 81 328 3.0 6.0 0.00 0.00 0.00 40 1007.9
20260505110243 81 324 2.0 5.0 0.00 0.00 0.00 41 1008.0
20260505101738 78 270 1.0 3.0 0.00 0.00 0.00 47 1008.5
20260505101235 78 304 1.0 3.0 0.00 0.00 0.00 48 1008.5
20260505100715 77 310 1.0 3.0 0.00 0.00 0.00 48 1008.6
20260505100208 77 293 1.0 5.0 0.00 0.00 0.00 48 1008.6
20260505095708 77 4 2.0 5.0 0.00 0.00 0.00 48 1008.7
20260505095435 76 27 2.0 5.0 0.00 0.00 0.00 48 1008.7
20260505094944 76 315 2.0 5.0 0.00 0.00 0.00 49 1008.8
20260505094204 76 354 2.0 4.0 0.00 0.00 0.00 49 1008.8
20260505093703 77 293 2.0 4.0 0.00 0.00 0.00 48 1008.9
20260505093201 76 122 2.0 4.0 0.00 0.00 0.00 49 1008.9
20260505092701 78 47 2.0 4.0 0.00 0.00 0.00 47 1009.0
20260505092423 78 22 2.0 5.0 0.00 0.00 0.00 47 1009.1
20260505091653 78 14 1.0 5.0 0.00 0.00 0.00 48 1009.1
20260505091153 78 45 1.0 5.0 0.00 0.00 0.00 49 1009.2
20260505090653 77 303 1.0 5.0 0.00 0.00 0.00 49 1009.3
20260505090153 76 232 1.0 4.0 0.00 0.00 0.00 53 1009.4
20260505085653 75 244 1.0 4.0 0.00 0.00 0.00 54 1009.4
20260505085151 75 61 2.0 5.0 0.00 0.00 0.00 52 1009.5
20260505084649 75 18 1.0 5.0 0.00 0.00 0.00 53 1009.5
20260505084147 74 14 0.0 4.0 0.00 0.00 0.00 54 1009.6
20260505083647 74 140 1.0 4.0 0.00 0.00 0.00 56 1009.6
20260505083147 73 161 1.0 4.0 0.00 0.00 0.00 57 1009.6
20260505082643 72 162 1.0 4.0 0.00 0.00 0.00 58 1009.5
20260505082143 71 280 2.0 6.0 0.00 0.00 0.00 58 1009.6
20260505081914 71 37 2.0 6.0 0.00 0.00 0.00 58 1009.6
20260505081409 71 310 1.0 4.0 0.00 0.00 0.00 57 1009.6
20260505080641 71 305 1.0 4.0 0.00 0.00 0.00 58 1009.7
20260505080416 71 344 1.0 4.0 0.00 0.00 0.00 58 1009.8
20260505075637 71 189 1.0 4.0 0.00 0.00 0.00 59 1009.8
20260505075404 69 222 1.0 3.0 0.00 0.00 0.00 61 1009.8
20260505074635 69 120 1.0 3.0 0.00 0.00 0.00 61 1009.8
20260505074138 69 172 1.0 5.0 0.00 0.00 0.00 61 1009.9
20260505073637 69 197 1.0 5.0 0.00 0.00 0.00 62 1009.9
20260505073135 68 308 0.0 3.0 0.00 0.00 0.00 63 1009.9
20260505072636 67 292 1.0 3.0 0.00 0.00 0.00 65 1010.0
20260505072135 67 189 1.0 4.0 0.00 0.00 0.00 66 1010.0
20260505071636 66 188 1.0 4.0 0.00 0.00 0.00 67 1010.0
20260505071404 65 121 0.0 1.0 0.00 0.00 0.00 68 1010.0
20260505070637 64 114 0.0 1.0 0.00 0.00 0.00 70 1010.0
20260505070409 64 79 0.0 2.0 0.00 0.00 0.00 70 1009.6
20260505065637 63 10 0.0 2.0 0.00 0.00 0.00 72 1010.1
20260505065135 62 28 0.0 2.0 0.00 0.00 0.00 73 1010.0
20260505064636 62 36 0.0 2.0 0.00 0.00 0.00 74 1010.1
20260505064135 61 40 0.0 2.0 0.00 0.00 0.00 76 1010.1
20260505063638 60 135 0.0 1.0 0.00 0.00 0.00 76 1010.1
20260505063135 60 143 0.0 2.0 0.00 0.00 0.00 77 1010.1
20260505062638 59 195 0.0 2.0 0.00 0.00 0.00 78 1010.1
20260505062114 59 198 0.0 2.0 0.00 0.00 0.00 79 1010.2
20260505061613 58 311 0.0 2.0 0.00 0.00 0.00 80 1010.2
20260505061113 58 309 0.0 2.0 0.00 0.00 0.00 81 1010.1
20260505060608 57 171 0.0 1.0 0.00 0.00 0.00 82 1010.2
20260505060355 55 172 0.0 1.0 0.00 0.00 0.00 83 1010.3
20260505060116 56 171 0.0 0.0 0.00 0.00 0.00 83 1010.2
20260505055055 55 172 0.0 1.0 0.00 0.00 0.00 83 1010.3
20260505054554 55 171 0.0 0.0 0.00 0.00 0.00 83 1010.5
20260505054039 54 171 0.0 0.0 0.00 0.00 0.00 83 1010.3
20260505053808 54 171 0.0 0.0 0.00 0.00 0.00 83 1010.3
20260505053028 54 171 0.0 0.0 0.00 0.00 0.00 83 1010.3
20260505052752 54 171 0.0 0.0 0.00 0.00 0.00 83 1010.3
20260505052015 54 171 0.0 0.0 0.00 0.00 0.00 83 1010.3
20260505051746 53 171 0.0 0.0 0.00 0.00 0.00 82 1010.2
20260505051013 53 171 0.0 0.0 0.00 0.00 0.00 82 1010.3
20260505050745 53 171 0.0 0.0 0.00 0.00 0.00 81 1010.3
20260505041435 54 171 0.0 1.0 0.00 0.00 0.00 77 1010.5
20260505040936 54 171 0.0 0.0 0.00 0.00 0.00 77 1010.3
20260505040435 55 171 0.0 0.0 0.00 0.00 0.00 77 1010.3
20260505035933 55 171 0.0 0.0 0.00 0.00 0.00 76 1010.3
20260505035425 55 171 0.0 0.0 0.00 0.00 0.00 76 1010.3
20260505034922 55 171 0.0 0.0 0.00 0.00 0.00 75 1010.5
20260505034415 55 171 0.0 0.0 0.00 0.00 0.00 75 1010.5
20260505034143 56 171 0.0 0.0 0.00 0.00 0.00 75 1010.6
20260505033657 56 171 0.0 0.0 0.00 0.00 0.00 74 1010.6
20260505032911 56 171 0.0 0.0 0.00 0.00 0.00 74 1010.6
20260505032339 56 171 0.0 0.0 0.00 0.00 0.00 74 1010.6
20260505031835 57 171 0.0 0.0 0.00 0.00 0.00 74 1010.6
20260505031610 57 171 0.0 0.0 0.00 0.00 0.00 74 1010.7
20260505030838 57 171 0.0 0.0 0.00 0.00 0.00 74 1010.7
20260505030609 57 171 0.0 0.0 0.00 0.00 0.00 74 1010.7
20260505025835 57 171 0.0 0.0 0.00 0.00 0.00 74 1010.7
20260505025610 58 171 0.0 0.0 0.00 0.00 0.00 74 1010.7
20260505024836 58 171 0.0 0.0 0.00 0.00 0.00 74 1010.7
20260505024337 58 171 0.0 0.0 0.00 0.00 0.00 74 1010.8
20260505024059 58 171 0.0 0.0 0.00 0.00 0.00 74 1010.8
20260505023335 58 171 0.0 0.0 0.00 0.00 0.00 75 1010.8
20260505022836 58 171 0.0 0.0 0.00 0.00 0.00 74 1010.8
20260505022336 58 171 0.0 1.0 0.00 0.00 0.00 75 1010.7
20260505021836 58 171 0.0 1.0 0.00 0.00 0.00 75 1010.7
20260505021327 58 171 0.0 1.0 0.00 0.00 0.00 74 1010.7
20260505020826 58 171 0.0 2.0 0.00 0.00 0.00 74 1010.7
20260505020317 59 171 0.0 2.0 0.00 0.00 0.00 74 1010.7
20260505015815 59 171 0.0 2.0 0.00 0.00 0.00 73 1010.8
20260505015307 59 171 0.0 3.0 0.00 0.00 0.00 73 1010.7
20260505014809 59 171 0.0 3.0 0.00 0.00 0.00 72 1010.8
20260505014309 60 171 0.0 1.0 0.00 0.00 0.00 72 1010.8
20260505013810 60 171 0.0 1.0 0.00 0.00 0.00 71 1010.7
20260505013309 60 171 0.0 3.0 0.00 0.00 0.00 71 1010.8
20260505012742 60 171 0.0 3.0 0.00 0.00 0.00 71 1010.8
20260505012239 60 171 1.0 4.0 0.00 0.00 0.00 71 1010.8
20260505011738 60 203 1.0 6.0 0.00 0.00 0.00 71 1010.8
20260505011236 60 199 0.0 6.0 0.00 0.00 0.00 72 1010.9
20260505010735 60 173 0.0 2.0 0.00 0.00 0.00 72 1011.0
20260505010225 60 169 0.0 2.0 0.00 0.00 0.00 72 1011.0
20260505005724 60 195 0.0 2.0 0.00 0.00 0.00 72 1011.1
20260505005455 60 195 0.0 2.0 0.00 0.00 0.00 72 1011.1
20260505004710 60 195 0.0 2.0 0.00 0.00 0.00 72 1011.1
20260505004210 61 195 0.0 2.0 0.00 0.00 0.00 72 1011.2
20260505003943 61 204 0.0 2.0 0.00 0.00 0.00 72 1011.2
20260505003206 61 204 0.0 3.0 0.00 0.00 0.00 72 1011.3